CAPE
0 0 0 0 0 0 0 0 0 0 0 0 0 0 0 0 0 0 0 0 0 0 0 0 0 0 0 0 0 0 0 0 0 0 0 0 0 0 0 0 0 0 0 0
0 0 0 0 0 0 0 0 0 0 0 0 0 0 0 0 0 0 0 0 0 0 0 0 0 0 0 0 0 0 0 0 0 0 0 0 0 0 0 0 0 0 0 0
0 0 0 0 0 0 0 0 0 0 0 0 0 0 0 0 0 0 0 0 0 0 0 0 0 0 0 0 0 0 0 0 0 0 0 0 0 0 0 0 0 0 0 0
0 0 0 0 0 0 0 0 0 0 0 0 0 0 0 0 0 0 0 0 0 0 0 0 0 0 0 0 0 0 0 0 0 0 0 0 0 0 0 0 0 0 0 0
0 0 0 0 0 0 0 0 0 0 0 0 0 0 0 0 0 0 0 0 0 0 0 0 0 0 0 0 0 0 0 0 0 0 0 0 0 0 0 0 0 0 0 0
0 0 0 0 0 0 0 0 0 0 0 0 0 0 0 0 0 0 0 0 0 0 0 0 0 0 0 0 0 0 0 0 0 0 0 0 0 0 0 0 0 0 0 0
0 0 0 0 0 0 0 0 0 0 0 0 0 0 0 0 0 0 0 0 0 0 0 0 0 0 0 0 0 0 0 0 0 0 0 0 0 0 0 0 0 0 0 0
0 0 0 0 0 0 0 0 0 0 0 0 0 0 0 0 0 0 0 0 0 0 0 0 0 0 0 0 0 0 0 0 0 0 0 0 0 0 0 0 0 0 0 0
0 0 0 0 0 0 0 0 0 0 0 0 0 0 0 0 0 0 0 0 0 0 0 0 0 0 0 0 0 0 0 0 0 0 0 0 0 0 0 0 0 0 0 0
0 0 0 0 0 0 0 0 1 0 0 0 0 0 0 0 0 0 0 0 0 0 0 0 0 0 0 0 0 0 0 0 0 0 0 0 0 0 0 0 0 0 0 0
0 4 0 0 0 0 3 0 0 0 0 1 0 0 0 0 0 0 0 0 0 0 0 0 0 0 0 0 0 0 0 0 0 0 0 0 0 0 0 0 0 0 0 0
7 19 0 0 0 0 2 0 0 8 7 0 0 0 0 0 0 0 0 0 0 0 0 0 0 0 0 0 0 0 0 0 0 0 0 0 0 0 0 0 0 0 0 0
16 9 0 0 0 0 5 6 38 29 12 13 14 3 0 0 0 0 0 0 0 0 0 0 0 0 0 0 0 0 0 0 0 0 0 0 0 0 0 0 0 0 0 0
2 0 0 0 0 0 1 6 12 7 14 11 5 0 0 0 0 0 0 0 0 0 0 0 0 0 0 0 0 0 0 0 0 0 0 0 0 0 0 0 0 0 0 0
7 1 0 2 4 1 5 5 0 0 0 3 0 5 0 0 0 0 0 0 0 0 0 0 0 0 0 0 0 0 0 0 0 0 0 0 0 0 0 0 0 0 0 0
5 0 0 0 0 0 0 0 0 0 0 0 0 0 0 0 0 0 0 0 0 0 0 0 0 0 0 0 0 0 0 0 0 0 0 0 0 0 0 0 0 0 0 0
0 0 0 0 0 0 0 0 0 0 1 2 3 1 0 0 0 0 0 0 0 0 0 0 0 0 0 0 0 0 0 0 0 0 0 0 0 0 0 0 0 0 0 0
0 0 3 0 0 0 0 0 0 0 0 0 0 0 0 0 0 0 0 0 0 0 0 0 0 0 0 0 0 0 0 0 0 0 0 0 0 0 0 0 0 0 0 0
0 0 0 1 0 0 0 0 0 0 0 0 0 0 0 0 0 0 0 0 0 0 0 0 0 0 0 0 0 0 0 0 0 0 0 0 0 0 0 0 0 0 0 0
0 0 0 0 1 0 0 0 0 0 0 0 0 0 0 0 0 0 0 0 0 0 0 0 0 0 0 0 0 0 0 0 0 0 0 0 0 0 0 0 0 0 0 0
0 0 0 0 4 3 0 0 0 0 0 0 0 0 0 0 0 0 0 0 0 0 0 0 0 0 0 0 0 0 0 0 0 0 0 0 0 0 0 0 1 1 0 0
0 0 0 0 0 0 0 0 0 0 0 0 0 0 0 0 0 0 0 0 0 0 0 0 0 0 0 0 0 0 0 0 0 0 0 0 0 0 0 0 0 1 1 1
0 0 0 0 0 0 0 0 0 0 0 0 0 0 0 0 0 0 0 0 0 0 0 0 0 0 0 0 0 0 0 0 0 0 0 0 0 0 0 0 1 2 3 5
0 0 0 0 0 0 0 0 0 0 0 0 0 0 0 0 0 0 0 0 0 0 0 0 0 0 0 0 0 0 0 0 0 0 0 0 0 0 0 1 1 2 4 4
0 0 0 0 0 0 0 0 0 0 0 0 0 0 0 0 0 0 0 0 0 0 0 0 0 0 0 0 0 0 0 0 0 0 0 0 0 0 0 0 1 1 0 0
0 0 0 0 0 0 0 0 0 0 0 0 0 0 0 0 0 0 0 0 0 0 0 0 0 0 0 0 0 0 0 0 0 0 0 0 0 0 0 0 0 0 0 0
CIN
0 0 0 0 0 0 0 0 0 0 0 0 0 0 0 0 0 0 0 0 0 0 0 0 0 0 0 0 0 0 0 0 0 0 0 0 0 0 0 0 0 0 0 0
0 0 0 0 0 0 0 0 0 0 0 0 0 0 0 0 0 0 0 0 0 0 0 0 0 0 0 0 0 0 0 0 0 0 0 0 0 0 0 0 0 0 0 0
0 0 0 0 0 0 0 0 0 0 0 0 0 0 0 0 0 0 0 0 0 0 0 0 0 0 0 0 0 0 0 0 0 0 0 0 0 0 0 0 0 0 0 0
0 0 0 0 0 0 0 0 0 0 0 0 0 0 0 0 0 0 0 0 0 0 0 0 0 0 0 0 0 0 0 0 0 0 0 0 0 0 0 0 0 0 0 0
0 0 0 0 0 0 0 0 0 0 0 0 0 0 0 0 0 0 0 0 0 0 0 0 0 0 0 0 0 0 0 0 0 0 0 0 0 0 0 0 0 0 0 0
0 0 0 0 0 0 0 0 0 0 0 0 0 0 0 0 0 0 0 0 0 0 0 0 0 0 0 0 0 0 0 0 0 0 0 0 0 0 0 0 0 0 0 0
0 0 0 0 0 0 0 0 0 0 0 0 0 0 0 0 0 0 0 0 0 0 0 0 0 0 0 0 0 0 0 0 0 0 0 0 0 0 0 0 0 0 0 0
0 0 0 0 0 0 0 0 -2 0 0 0 0 0 0 0 0 0 0 0 0 0 0 0 0 0 0 0 0 0 0 0 0 0 0 0 0 0 0 0 0 0 0 0
0 0 0 0 0 0 0 0 0 0 0 0 0 0 0 0 0 0 0 0 0 0 0 0 0 0 0 0 0 0 0 0 0 0 0 0 0 0 0 0 0 0 0 0
0 0 0 0 0 0 0 0 -5 0 0 0 0 0 0 0 0 0 0 0 0 0 0 0 0 0 0 0 0 0 0 0 0 0 0 0 0 0 0 0 0 0 0 0
0 -3 0 0 0 0 -3 0 0 0 0 0 0 0 0 0 0 0 0 0 0 0 0 0 0 0 0 0 0 0 0 0 0 0 0 0 0 0 0 0 0 0 0 0
-10 -2 0 0 0 0 -17 0 -5 -8 -17 0 -1 -2 0 0 0 0 0 0 0 0 0 0 0 0 0 0 0 0 0 0 0 0 0 0 0 0 0 0 0 0 0 0
-4 -3 -1 0 0 0 -27 -6 -3 -3 -6 -5 -2 -3 0 0 0 0 0 0 0 0 0 0 0 0 0 0 0 0 0 0 0 0 0 0 0 0 0 0 0 0 0 0
-7 0 -1 0 0 0 -1 -3 -2 -9 -16 -18 -19 0 0 0 0 0 0 0 0 0 0 0 0 0 0 0 0 0 0 0 0 0 0 0 0 0 0 0 0 0 0 0
-2 -1 0 -1 -2 -1 -1 -3 0 -1 0 -1 0 -2 0 0 0 0 0 0 0 0 0 0 0 0 0 0 0 0 0 0 0 0 0 0 0 0 0 0 0 0 0 0
-1 0 0 0 0 0 0 0 0 0 0 0 0 -1 0 0 0 0 0 0 0 0 0 0 0 0 0 0 0 0 0 0 0 0 0 0 0 0 0 0 0 0 0 0
0 0 0 0 0 0 0 0 0 0 -1 -2 -1 -2 0 0 0 0 0 0 0 0 0 0 0 0 0 0 0 0 0 0 0 0 0 0 0 0 0 0 0 0 0 0
0 0 0 0 0 -1 0 0 0 0 0 0 0 0 0 0 0 0 0 0 0 0 0 0 0 0 0 0 0 0 0 0 0 0 0 0 0 0 0 0 0 0 0 0
0 0 -1 -1 0 0 0 0 0 0 0 0 0 0 0 0 0 0 0 0 0 0 0 0 0 0 0 0 0 0 0 0 0 0 0 0 0 0 0 0 0 0 0 0
0 0 0 0 -1 0 0 0 0 0 0 0 0 0 0 0 0 0 0 0 0 0 0 0 0 0 0 0 0 0 0 0 0 0 0 0 0 0 0 0 0 0 0 0
0 0 0 0 0 -3 0 0 0 0 0 0 0 0 0 0 0 0 0 0 0 0 0 0 0 0 0 0 0 0 0 0 0 0 0 0 0 0 0 0 -1 -2 0 0
0 0 0 0 0 0 0 0 0 0 0 0 0 0 0 0 0 0 0 0 0 0 0 0 0 0 0 0 0 0 0 0 0 0 0 0 0 0 0 -1 0 -2 -1 -1
0 0 0 0 0 0 0 0 0 0 0 0 0 0 0 0 0 0 0 0 0 0 0 0 0 0 0 0 0 0 0 0 0 0 0 0 0 0 0 0 0 0 0 0
0 0 0 0 0 0 0 0 0 0 0 0 0 0 0 0 0 0 0 0 0 0 0 0 0 0 0 0 0 0 0 0 0 0 0 0 0 0 0 0 0 0 0 0
0 0 0 0 0 0 0 0 0 0 0 0 0 0 0 0 0 0 0 0 0 0 0 0 0 0 0 0 0 0 0 0 0 0 0 0 0 0 0 0 0 0 -1 -1
0 0 0 0 0 0 0 0 0 0 0 0 0 0 0 0 0 0 0 0 0 0 0 0 0 0 0 0 0 0 0 0 0 0 0 0 0 0 0 0 0 0 0 0
Wind_Speed
19 23 25 27 25 28 35 38 39 38 39 42 43 43 43 39 40 37 35 31 28 22 22 24 26 26 26 26 26 26 24 23 21 19 19 20 22 21 23 24 25 24 23 22
25 30 29 30 32 34 35 38 41 39 32 32 38 45 42 34 30 32 30 26 19 20 23 25 26 27 27 27 28 28 28 24 19 19 21 23 23 23 24 24 25 26 26 24
32 31 29 30 29 33 33 35 38 40 40 35 39 42 39 30 32 28 23 15 19 21 24 26 27 28 28 28 29 28 27 25 25 24 24 22 23 26 26 24 23 24 26 26
32 29 27 26 27 27 35 30 33 36 37 46 37 56 43 35 28 19 18 21 21 22 23 24 26 28 29 29 28 28 28 28 26 26 26 29 28 30 26 26 25 24 23 25
25 22 24 26 28 26 35 32 35 37 43 47 41 47 42 39 29 19 21 20 22 22 22 23 25 26 27 28 28 28 28 29 29 28 27 28 30 31 30 28 29 26 26 25
28 25 26 28 28 28 31 37 39 39 41 47 40 38 38 31 26 22 21 20 21 22 22 23 24 25 27 27 28 28 29 31 31 30 31 30 30 31 32 31 32 31 28 28
30 32 29 28 34 29 30 36 47 50 47 56 43 42 39 38 36 26 24 23 23 23 25 25 26 26 27 29 29 29 32 33 33 33 33 32 32 30 30 32 32 31 32 30
46 48 29 22 30 37 39 37 43 58 60 59 50 52 46 37 28 25 23 24 26 27 28 28 29 30 30 31 32 33 33 34 34 33 33 33 33 32 32 32 32 32 32 32
42 43 32 33 32 32 34 38 34 43 48 53 53 51 55 36 31 29 28 26 28 28 29 28 30 29 32 34 34 35 36 36 35 34 33 33 34 34 34 34 34 33 34 34
31 47 34 29 31 31 32 34 43 36 48 60 57 64 58 48 36 30 30 30 28 28 29 31 33 34 33 35 36 36 35 36 36 36 35 34 34 34 34 35 35 36 36 36
32 35 48 39 39 43 38 39 36 42 45 57 63 55 43 40 30 31 31 30 29 30 32 35 36 35 35 34 35 36 36 36 36 36 36 36 36 36 36 37 38 38 39 38
33 37 47 53 40 38 39 42 40 47 46 43 50 54 42 40 36 32 32 32 31 32 34 35 35 35 36 37 37 36 36 37 38 36 36 37 38 38 38 39 40 40 41 40
27 34 47 51 45 29 33 35 36 39 43 54 61 58 33 31 31 29 32 32 32 33 35 35 36 37 38 38 39 38 38 38 39 39 37 38 39 40 41 42 43 43 43 42
30 39 44 53 51 50 50 46 40 42 50 51 49 53 49 41 42 38 39 40 40 39 38 39 39 40 41 42 41 41 41 41 41 42 41 42 42 43 44 45 45 46 46 45
32 46 46 47 47 49 53 54 56 57 56 62 63 60 56 56 54 50 48 45 44 42 40 40 42 43 44 43 42 42 43 43 44 46 47 47 47 47 48 48 48 48 47 47
33 48 48 56 51 51 56 58 57 56 57 59 59 63 54 44 40 40 39 40 42 40 40 40 40 42 43 44 45 44 45 46 46 50 51 51 52 52 52 52 53 53 53 51
40 44 48 62 52 54 62 55 53 54 51 53 60 54 47 45 41 40 39 38 40 40 40 41 42 42 44 46 47 48 48 47 50 52 53 54 54 55 56 56 57 58 58 57
42 45 45 59 53 65 54 44 43 48 48 47 47 42 39 38 37 38 36 38 40 41 41 42 43 44 45 46 48 48 48 50 53 54 54 54 54 56 57 58 60 61 60 60
34 40 47 52 55 55 56 51 49 49 52 41 36 33 33 35 38 40 33 33 38 39 40 42 41 43 46 47 47 48 50 52 54 55 56 56 57 59 61 62 63 63 63 64
32 33 41 46 56 62 50 35 33 34 52 31 27 30 36 39 46 43 37 38 38 37 40 41 41 43 46 47 47 50 54 55 56 57 58 58 60 62 64 64 65 65 65 67
39 39 44 47 52 50 38 33 28 44 46 23 25 33 38 39 38 39 39 38 36 38 39 39 41 45 46 47 50 54 56 59 59 60 61 62 62 63 63 65 65 66 66 67
40 42 42 40 46 51 29 26 32 31 26 28 35 40 40 37 36 36 36 36 36 36 38 39 43 46 46 48 51 57 60 59 61 63 64 65 64 63 64 65 67 66 67 69
41 36 40 35 37 29 25 32 31 33 37 41 41 38 36 33 33 33 35 34 35 38 39 40 43 47 48 47 50 56 58 59 61 63 64 65 64 63 62 64 65 65 64 65
36 34 38 38 36 37 38 35 34 35 36 37 34 35 32 31 33 34 33 34 36 37 39 41 44 47 50 50 52 53 56 56 58 60 61 61 61 59 56 54 54 55 57 58
33 31 34 37 37 39 36 34 33 34 34 35 33 32 31 31 31 32 33 34 35 37 39 40 44 47 51 52 53 53 52 53 55 55 55 53 50 50 51 49 48 48 46 48
29 33 36 41 36 36 37 36 35 37 39 38 35 30 30 29 31 31 32 33 35 38 39 42 44 48 51 52 51 49 48 49 51 49 45 43 44 46 46 48 49 45 47 48
Wind_Direction
305 302 301 303 301 302 305 305 305 309 312 307 305 308 312 317 310 311 313 314 315 325 332 335 338 339 338 335 328 326 320 314 310 305 299 292 287 286 284 280 275 270 269 264
303 297 300 301 303 304 303 304 305 309 316 316 313 308 314 316 321 320 316 319 329 329 332 334 336 339 339 337 333 328 321 324 324 313 309 303 301 296 292 288 282 275 270 265
291 297 309 303 299 300 302 303 306 307 312 314 313 310 316 321 318 320 325 338 336 331 328 331 334 338 339 338 336 338 336 331 326 319 309 308 305 305 302 297 291 282 276 272
297 303 301 303 302 302 302 307 309 307 308 305 317 301 312 317 319 333 335 334 332 330 333 334 334 337 340 341 341 340 339 337 333 325 318 310 304 300 302 300 298 293 283 277
305 308 307 303 304 307 303 309 305 304 302 303 305 302 309 313 312 311 326 330 338 341 343 344 343 343 342 340 342 343 344 343 342 336 329 320 312 307 304 304 301 296 291 285
299 311 307 304 306 304 307 305 301 300 302 296 305 303 308 314 319 316 321 327 333 337 340 344 344 345 341 340 341 343 345 346 346 342 336 330 323 316 309 304 302 299 295 290
305 304 307 307 304 306 305 303 300 295 293 292 302 298 296 304 308 306 308 314 322 327 328 330 331 334 335 334 334 336 338 339 341 341 340 336 330 324 319 313 308 304 299 295
298 297 303 310 306 305 304 300 295 293 292 293 296 291 296 309 310 311 311 310 313 316 319 322 323 327 327 327 329 332 334 334 333 332 332 334 333 328 323 319 315 311 307 301
300 294 307 308 308 309 308 301 307 298 295 293 291 294 297 298 303 303 302 306 309 314 318 320 322 328 328 328 328 328 328 328 329 329 329 327 326 326 325 321 318 315 310 306
306 298 306 310 310 306 302 306 300 300 297 292 293 294 296 300 298 301 304 305 311 315 317 319 321 321 325 325 324 326 326 326 326 326 327 326 326 323 322 319 319 316 311 307
308 300 295 305 301 301 302 299 298 299 294 294 293 293 306 310 307 303 305 307 310 313 316 316 317 318 318 319 321 322 323 324 324 325 323 322 322 321 319 316 315 312 310 309
306 303 296 295 304 305 301 298 297 294 297 295 295 294 306 307 307 304 302 304 307 311 313 314 314 314 314 315 315 320 322 322 322 325 323 321 319 319 317 315 313 312 308 307
315 305 301 301 304 309 306 307 303 299 298 292 293 297 314 310 309 309 308 307 305 310 312 309 309 309 311 312 313 316 319 318 320 322 321 318 318 317 315 313 310 309 308 306
309 299 294 293 297 303 301 302 302 300 298 299 294 299 300 301 299 300 298 300 300 303 307 305 305 307 308 309 313 314 314 317 317 317 317 314 314 313 311 310 308 307 307 307
304 295 297 296 297 298 298 297 295 293 293 292 295 296 297 299 298 296 296 297 297 299 303 303 303 305 306 308 310 313 314 313 314 313 313 312 310 310 308 307 307 308 307 306
302 298 300 296 299 298 296 294 294 294 294 293 295 294 299 303 303 301 300 300 300 298 301 303 305 307 307 307 307 309 310 310 312 311 310 309 307 306 305 305 304 302 302 302
301 301 300 295 301 301 294 296 297 295 294 295 295 300 304 301 301 302 301 302 303 301 300 303 304 308 309 309 310 307 308 309 309 309 308 307 306 304 303 302 301 301 300 299
297 298 299 297 301 292 300 306 304 300 301 302 302 304 306 306 306 307 307 304 302 304 301 301 304 308 310 311 311 309 308 309 309 308 308 307 306 304 303 301 300 299 298 296
292 295 298 296 295 298 300 304 302 302 301 307 303 307 310 312 311 307 314 313 311 308 307 306 307 309 311 312 313 311 310 310 309 308 307 307 306 303 301 299 298 297 296 294
304 296 293 297 296 297 305 313 316 314 301 312 308 308 310 312 304 306 313 314 312 311 311 312 312 313 313 315 315 313 312 312 310 310 308 307 306 304 301 299 297 296 294 292
303 301 293 295 295 298 307 313 317 302 307 313 314 314 313 309 308 311 312 312 313 314 314 315 315 314 315 317 316 313 312 311 312 311 309 308 306 304 302 300 298 296 294 292
300 302 301 302 300 300 317 315 305 314 316 312 313 313 311 311 311 312 313 313 316 317 319 319 317 316 319 320 318 315 313 315 314 312 311 309 308 306 304 301 299 296 294 291
299 299 300 298 300 312 310 307 308 309 306 306 308 312 312 311 312 315 315 316 317 319 319 320 319 318 320 322 321 318 317 318 316 314 313 311 310 309 306 303 300 297 295 292
298 298 296 299 299 299 302 303 304 306 306 309 310 312 313 310 313 315 316 317 318 319 320 322 321 321 321 323 322 321 320 321 319 317 316 315 313 312 311 309 306 303 300 296
299 308 301 298 301 303 302 304 306 307 309 310 311 311 312 312 312 315 316 318 319 321 322 323 323 323 323 324 323 324 324 324 323 322 322 321 320 318 316 315 312 310 307 303
293 292 294 297 304 302 303 308 309 308 308 308 307 308 311 313 313 316 317 319 321 322 324 324 325 325 325 326 326 328 329 329 329 329 329 328 327 324 322 320 316 315 310 308